Theta_e
353 362 364 363 362 361 359 358 360 359 360 360 360 361 360 360 362 362 361 360 358 357 355 356 356 356 354 352 350 351 352 350 349 348 348 350 353 356 355 353 352 348 351
356 362 363 362 363 361 359 359 360 359 360 361 360 361 360 360 360 360 359 359 358 356 356 356 355 353 352 350 347 348 348 350 351 349 348 350 351 354 357 355 353 350 355
356 362 360 362 362 361 359 360 359 359 360 361 360 360 360 360 359 359 359 360 359 356 355 355 354 352 349 345 345 346 348 350 352 352 351 343 341 350 354 356 354 356 355
356 360 358 362 362 361 360 360 359 360 360 360 360 360 360 360 359 358 360 360 358 356 356 354 352 348 346 344 345 346 348 350 352 352 344 343 340 356 358 357 350 353 355
354 359 360 363 361 359 360 360 359 360 359 360 359 359 360 360 359 360 360 360 358 356 355 352 349 345 344 345 348 349 351 351 350 347 341 340 336 355 353 357 357 357 356
353 358 360 362 360 359 360 360 360 360 360 360 359 359 359 359 359 360 360 360 359 356 353 349 346 346 347 349 349 350 350 351 352 341 344 355 355 360 357 356 354 353 352
353 358 357 361 360 359 360 360 360 360 359 359 360 359 358 359 360 360 360 359 357 354 350 348 348 348 348 349 350 350 350 351 345 343 351 354 353 354 352 350 348 348 348
353 357 358 360 360 359 360 360 359 359 359 359 359 359 359 360 359 359 357 357 356 354 352 350 349 348 347 348 350 350 352 351 348 346 351 350 351 350 347 345 344 343 343
354 355 355 356 358 360 359 359 358 358 358 358 357 358 358 359 358 357 356 355 354 351 350 349 348 348 348 349 352 352 353 353 347 345 348 346 349 345 341 339 338 338 339
352 353 350 355 356 354 355 359 358 358 358 357 357 357 357 357 356 356 353 353 352 351 349 348 349 349 350 351 352 353 354 355 347 345 345 343 345 338 335 336 335 335 336
350 348 350 351 352 351 352 355 357 357 357 357 357 357 353 348 349 349 350 350 352 350 350 349 350 350 351 352 354 355 356 345 344 342 340 345 342 335 335 334 334 334 335
345 349 350 349 349 351 352 351 350 351 352 351 350 349 345 342 342 344 346 351 351 351 351 351 351 352 352 347 347 347 345 344 341 338 336 341 338 335 335 333 333 333 333
344 347 349 349 350 348 350 349 348 348 348 347 345 344 339 337 336 340 335 338 340 345 341 341 341 342 343 345 336 325 335 339 336 335 336 339 338 334 334 332 331 332 332
341 345 347 348 347 347 348 345 345 343 341 338 338 339 335 332 333 332 334 336 335 333 332 335 341 343 344 340 331 323 324 331 331 330 330 337 338 333 331 331 330 331 331
336 340 342 344 344 345 343 341 341 339 337 336 334 336 333 332 334 334 334 335 334 335 337 341 344 343 337 331 320 321 320 326 329 328 325 334 336 333 330 329 332 329 329
334 336 338 339 339 343 340 339 339 337 336 335 335 337 335 334 337 334 333 334 337 344 344 342 339 333 321 320 319 321 321 324 323 325 324 327 336 334 329 328 330 326 327
334 336 335 336 336 339 337 337 337 337 338 336 339 339 337 339 337 336 332 333 343 343 333 325 323 320 319 319 319 321 322 323 322 322 322 325 330 332 331 332 328 327 326
335 335 336 336 336 335 333 336 336 337 338 338 342 342 341 343 341 337 339 344 345 336 324 322 321 318 318 318 317 316 315 322 321 321 323 323 324 322 324 329 328 327 326
335 335 334 336 335 332 329 334 336 337 336 339 343 343 341 344 341 337 344 338 331 327 324 322 320 319 318 317 318 319 315 318 324 325 319 320 318 318 317 323 329 329 329
335 336 335 338 335 334 330 337 336 339 336 339 341 342 339 340 345 345 342 333 328 324 322 321 319 321 317 316 318 319 318 320 318 317 318 320 318 317 316 318 316 317 329
336 335 335 339 339 338 335 341 339 339 340 339 340 340 336 339 346 342 335 331 326 324 323 323 322 318 315 317 311 310 315 313 313 316 317 316 315 316 316 316 314 314 316
339 335 339 341 344 341 345 344 343 342 340 338 338 336 337 344 343 338 330 326 324 324 323 321 322 319 315 317 312 310 305 309 315 314 313 314 311 313 315 314 313 315 316
339 332 330 335 344 345 344 343 340 345 344 340 340 342 343 345 342 336 331 328 326 324 319 318 317 314 313 315 314 310 305 304 308 313 313 312 310 310 311 310 313 314 313
338 337 333 329 339 345 345 342 341 337 337 340 342 342 340 341 338 335 332 328 324 322 319 319 319 318 313 310 312 313 314 310 302 305 310 310 310 310 309 309 310 311 311
334 331 333 328 328 342 341 341 339 339 343 344 342 338 335 335 335 332 327 325 324 323 321 318 316 314 313 311 310 312 310 309 307 306 303 307 310 310 309 308 308 308 309
327 327 326 324 331 326 339 336 337 342 342 340 338 336 335 329 327 326 325 323 323 323 321 316 315 317 315 315 313 313 311 309 308 306 302 302 305 308 310 307 306 306 307
Wind_Speed
7 8 14 13 17 18 17 17 19 19 18 18 18 17 17 18 19 17 16 16 16 15 14 13 11 9 8 6 5 5 5 6 7 7 8 8 7 7 6 4 5 3 4
9 8 14 15 17 18 18 17 18 18 17 17 17 16 15 16 16 15 15 14 14 15 13 12 10 7 6 5 4 4 5 6 7 7 8 9 11 10 9 7 6 5 7
12 10 11 16 18 18 18 17 19 18 17 16 16 16 15 15 15 14 13 13 13 14 12 10 8 5 4 2 3 4 5 6 8 9 10 5 5 11 10 8 7 8 8
9 12 9 16 18 19 18 17 18 19 18 16 16 15 15 15 14 13 12 12 12 13 10 8 6 3 1 2 4 6 6 9 10 12 5 5 7 6 3 5 6 7 6
11 13 12 16 19 19 19 17 18 19 19 18 16 14 14 14 13 11 11 10 11 11 9 7 4 1 2 5 6 6 7 8 11 10 9 4 1 6 3 4 6 8 10
14 13 19 18 19 20 19 17 18 18 18 18 17 15 14 14 12 10 9 9 9 9 7 5 3 3 5 7 8 6 7 7 9 5 4 8 7 8 5 7 8 10 10
18 15 19 19 19 21 20 18 17 17 17 16 17 16 15 13 11 10 9 8 8 8 6 5 5 6 6 7 9 7 7 7 5 5 5 5 6 7 8 11 11 12 12
27 17 16 19 20 20 21 19 18 16 15 15 15 15 14 13 10 9 8 7 7 6 6 6 6 8 7 9 9 7 7 6 4 3 5 5 7 8 10 11 11 12 14
18 19 13 14 17 21 19 20 18 17 16 14 14 13 13 13 11 9 8 7 7 7 7 7 8 8 9 10 10 8 6 6 2 2 6 3 8 9 11 10 12 13 14
15 17 16 13 13 13 14 20 19 17 16 14 13 12 11 11 10 9 8 8 8 9 8 7 8 8 10 11 12 10 5 6 3 5 4 3 7 9 10 13 15 15 14
13 15 17 17 15 9 10 14 18 19 17 15 13 13 9 4 6 8 8 9 10 9 9 8 8 8 9 11 12 13 5 3 6 4 3 7 7 9 12 14 13 14 14
18 17 17 18 17 11 10 11 10 11 8 7 6 7 5 5 5 7 8 10 9 9 10 6 8 8 6 4 4 4 3 6 5 4 3 5 6 9 11 10 11 12 12
20 15 16 17 15 14 10 7 6 5 5 5 7 6 5 4 4 4 2 2 2 7 2 2 3 3 3 2 3 3 5 5 3 3 4 6 7 9 9 8 8 10 11
21 18 16 15 15 13 10 7 7 7 5 4 5 6 5 3 4 4 3 4 4 3 2 3 3 3 1 1 3 5 4 5 3 3 5 9 8 7 5 5 5 7 8
23 21 20 16 14 12 13 9 8 7 6 6 5 6 5 5 5 3 4 4 2 4 4 3 3 3 3 3 5 4 6 6 6 3 2 10 8 6 4 4 9 5 7
23 21 20 18 15 14 13 14 10 8 7 6 5 6 8 5 4 4 4 2 2 3 4 4 4 4 4 3 4 4 3 5 6 5 3 5 7 5 3 3 9 1 4
23 23 21 20 16 15 15 14 11 10 9 8 8 9 9 7 6 6 4 5 5 3 6 5 4 4 5 3 5 5 5 3 3 4 4 3 3 4 5 6 6 3 2
24 26 22 18 19 16 13 13 11 11 9 8 8 7 9 7 7 5 4 4 4 4 4 4 3 4 4 4 3 4 4 3 0 3 3 3 3 2 4 8 4 4 5
23 24 23 20 20 16 11 9 10 11 8 7 6 6 8 7 7 6 5 5 5 4 4 3 4 3 3 3 3 3 2 4 4 4 4 5 1 2 3 7 4 6 8
17 22 22 17 17 15 10 8 7 9 8 7 7 7 8 5 8 7 5 6 5 5 4 4 4 4 3 2 3 4 3 2 3 4 5 4 5 5 5 5 4 5 9
10 17 20 20 17 13 11 10 8 8 8 4 7 9 8 7 7 8 5 5 4 5 4 3 3 4 5 4 3 3 3 3 5 5 4 4 5 5 5 4 4 4 4
3 5 7 16 15 13 10 9 7 7 4 4 3 5 7 8 7 7 8 6 6 5 6 4 3 2 2 4 2 2 4 4 2 3 4 3 7 4 5 6 6 6 3
10 6 10 10 11 12 9 7 4 5 5 4 4 6 4 9 8 9 8 7 7 5 5 3 4 5 3 3 5 3 2 2 3 2 2 4 6 4 5 6 6 6 6
19 2 5 10 14 7 12 9 12 4 6 2 7 6 5 6 8 9 9 8 7 5 6 4 4 4 4 3 2 4 4 2 1 4 2 1 5 5 6 4 5 5 6
16 26 9 13 15 17 10 11 10 9 8 7 7 11 9 7 9 10 8 9 7 6 6 6 6 6 4 4 3 2 3 3 2 1 4 5 2 4 4 4 4 5 6
16 21 24 17 21 19 8 11 11 14 13 10 9 9 7 6 6 9 9 8 7 7 7 5 6 7 5 5 3 4 3 2 2 2 2 4 7 4 5 3 4 3 4
Wind_Direction
158 155 149 146 129 125 126 123 117 113 112 110 107 107 109 107 106 108 111 114 114 114 115 114 111 105 101 88 67 38 19 11 9 4 341 326 303 284 269 270 291 309 211
132 160 154 147 134 129 129 128 121 117 114 111 109 107 105 104 107 112 116 117 117 118 119 116 108 99 81 59 34 6 356 349 344 338 331 312 299 280 257 253 261 260 259
145 157 162 151 138 133 133 133 125 120 117 115 115 115 115 114 116 119 121 122 122 120 120 115 111 103 84 42 352 332 327 335 335 335 320 297 279 273 255 241 264 273 272
163 146 167 156 141 137 138 138 132 128 128 126 123 123 124 123 123 128 129 129 128 126 125 123 118 109 66 315 298 297 330 348 337 333 305 297 316 16 284 272 311 311 306
153 150 165 160 145 142 142 142 137 135 136 134 130 130 129 127 130 137 136 133 135 133 134 133 130 146 261 274 285 315 343 349 339 340 320 296 255 57 20 37 18 14 10
150 153 167 161 150 146 144 145 142 139 140 139 140 140 138 138 140 143 142 142 143 143 142 143 170 228 257 283 295 324 330 346 339 323 357 49 60 77 56 55 35 24 23
147 158 163 161 155 148 145 146 143 143 145 146 145 145 145 144 148 147 146 152 153 151 161 179 214 245 263 281 292 319 330 347 357 357 70 65 71 71 48 41 31 23 17
142 154 151 159 154 152 149 148 146 146 147 148 146 147 148 148 154 154 157 169 161 172 186 205 234 259 277 286 295 310 320 339 12 56 74 69 72 63 53 43 30 21 18
139 141 149 156 159 155 153 149 148 148 150 153 151 153 155 153 158 162 176 179 184 198 211 225 243 270 285 293 297 302 309 312 353 141 96 70 69 59 49 42 33 23 20
144 141 154 152 161 158 156 152 149 151 152 153 153 157 163 157 165 171 187 201 207 215 226 237 259 274 293 298 302 296 289 289 132 87 85 91 76 58 51 42 30 22 14
149 153 156 161 165 159 156 157 149 154 154 157 160 164 161 160 176 194 193 214 224 229 237 245 265 282 301 308 310 309 196 105 104 103 109 100 78 67 55 47 31 22 15
163 163 161 162 163 158 157 153 148 152 155 163 163 166 164 169 190 208 209 220 234 243 251 264 281 291 306 316 319 355 116 112 103 117 109 118 98 71 59 48 35 26 22
161 162 166 161 157 158 151 155 148 143 155 171 168 168 160 169 217 236 227 242 223 260 296 345 290 276 301 316 31 16 88 100 121 116 148 146 111 80 67 48 38 28 21
167 163 164 163 162 161 151 161 154 153 162 171 181 162 156 182 216 230 228 228 222 262 264 250 270 220 288 48 112 109 92 122 136 152 172 151 116 97 80 50 44 31 21
165 166 164 166 167 160 159 157 159 163 174 179 173 174 169 193 209 193 218 239 180 233 219 195 120 93 75 40 41 42 110 143 165 160 175 152 145 144 115 51 21 30 9
162 165 161 167 169 167 169 163 169 167 173 170 173 186 188 197 208 168 208 121 161 157 118 124 111 104 70 50 30 12 84 155 141 159 166 163 169 172 148 1 14 68 353
167 160 164 166 168 174 173 169 167 176 173 176 187 189 187 183 187 177 151 156 170 132 102 98 98 85 70 28 36 27 33 17 45 147 171 164 188 203 231 338 360 178 288
161 162 164 167 172 174 180 179 174 175 174 180 189 179 187 173 163 130 137 116 123 112 115 102 97 79 67 41 359 6 31 17 340 139 84 90 194 246 298 327 343 216 267
170 159 162 167 174 171 176 187 180 162 170 185 186 179 168 174 149 133 126 123 113 105 108 106 65 90 56 9 341 310 4 0 48 55 51 109 180 311 333 305 326 285 269
181 160 157 159 171 172 164 180 190 163 179 175 177 178 169 146 146 128 118 116 123 108 91 68 94 52 71 348 325 341 5 75 98 66 76 55 354 339 336 318 310 301 286
173 163 159 156 169 168 169 170 177 173 150 145 164 167 160 146 138 128 110 114 113 98 103 103 90 73 30 5 15 7 17 61 42 60 82 39 13 347 354 327 316 306 305
48 146 149 159 155 169 165 161 163 163 112 117 139 103 131 138 132 122 126 115 109 103 79 71 98 102 68 26 91 69 353 332 7 55 47 39 11 2 358 337 332 335 330
104 37 32 351 175 158 151 123 89 96 82 90 100 118 129 133 123 121 117 125 104 105 99 102 91 106 103 30 51 128 25 312 328 354 35 31 359 352 336 341 0 4 15
144 61 23 332 304 167 154 148 157 138 129 104 122 103 84 90 103 99 95 96 103 103 104 85 65 82 92 60 14 18 69 120 54 326 313 335 349 360 350 352 13 16 18
170 144 217 267 288 277 150 156 139 125 108 110 102 100 98 79 86 91 99 99 104 107 92 87 79 75 71 93 68 17 24 42 67 224 290 325 349 334 335 359 19 21 13
164 174 180 170 257 263 194 133 132 125 124 122 119 119 110 97 93 93 95 101 105 97 95 96 81 76 86 77 61 53 65 41 343 331 333 314 324 325 319 35 34 359 326